Theta_e
318 317 318 318 319 320 320 321 322 321 322 323 323 323 323 323 323 323 323 323 323 323 325 325 325 325 325 324 324 325 323 313 309 307 306 308 315 320 322 323 324 326 319 317 312 308 306 307 306 308 307 306 305 306 303 304 304 305 301 299 295 296 295 297 296 297 299 297 299 298 300 299 297 301 301 303 301 301 303 302 303 303 303 304 305 305 306 306
319 319 319 320 320 321 322 322 321 322 323 322 323 324 323 323 323 323 323 323 324 325 325 325 325 324 324 324 325 323 319 312 307 308 306 314 321 320 321 323 324 324 318 314 308 307 305 305 306 307 306 304 307 302 304 302 304 302 299 298 296 296 297 299 300 299 297 298 300 299 299 300 299 300 301 297 297 299 299 300 302 302 302 304 305 305 304 305
319 320 319 321 320 321 322 321 322 322 323 323 324 324 325 324 323 323 323 324 325 326 325 325 324 324 323 323 324 322 312 308 305 303 309 321 321 320 321 322 321 319 313 306 308 307 306 306 306 305 305 302 303 303 304 301 304 301 301 297 296 297 297 299 300 298 300 300 298 299 299 299 300 300 303 297 297 299 297 298 300 300 300 302 303 304 304 304
318 320 320 320 321 321 321 322 322 323 323 324 324 324 324 323 323 324 325 325 325 325 325 325 324 323 323 323 320 323 313 309 300 305 311 321 319 319 320 319 318 317 318 311 308 308 308 308 307 306 304 303 303 302 301 300 302 300 301 296 296 297 296 297 299 299 300 302 299 299 299 298 300 300 300 298 296 297 300 302 302 301 301 303 304 304 305 304
319 319 320 319 320 321 321 322 322 323 324 324 323 324 324 324 324 324 325 325 325 326 325 325 323 323 321 320 318 316 309 301 299 308 312 318 318 318 318 317 319 317 318 308 308 308 307 306 305 305 305 301 303 301 298 300 301 300 295 296 297 298 296 297 298 298 299 301 300 299 296 296 301 300 299 298 295 296 300 304 305 304 304 304 304 305 305 304
318 318 319 319 319 321 321 322 323 323 323 323 323 323 324 324 324 324 325 325 326 327 326 326 324 321 320 319 318 314 306 292 305 307 318 316 317 318 317 318 318 315 311 308 306 306 305 305 304 304 302 301 299 300 298 300 301 296 296 296 298 297 297 298 298 298 298 298 298 298 299 300 299 298 299 298 297 300 305 306 307 307 306 306 307 307 305 305
318 317 318 320 320 320 321 321 321 322 322 323 323 324 324 324 323 324 324 325 326 326 326 325 324 319 319 317 319 311 304 302 307 309 315 317 316 318 317 315 318 317 314 307 306 304 304 303 303 303 301 300 299 298 300 301 302 301 294 296 295 299 297 298 298 297 298 298 298 299 301 297 298 294 300 298 300 302 305 306 308 307 310 310 309 306 306 306
318 318 319 319 320 320 320 320 320 321 321 322 323 324 325 324 324 324 325 326 325 326 326 325 324 322 317 318 318 304 303 300 307 311 313 315 311 310 312 311 313 311 307 305 305 303 304 303 301 304 302 302 300 300 301 299 302 298 295 297 296 298 297 298 298 298 297 298 299 298 296 296 297 297 299 298 301 302 303 305 305 307 306 306 306 306 306 305
319 319 319 319 319 319 319 319 320 321 322 323 323 324 325 324 323 323 324 324 325 325 325 322 319 321 318 315 308 303 299 306 309 310 310 308 308 309 310 309 309 307 305 306 306 305 304 305 303 304 300 299 301 300 301 301 296 299 297 297 297 297 298 298 298 297 297 298 298 296 295 297 298 299 296 298 299 302 303 303 303 304 304 305 304 304 304 304
319 319 319 318 318 319 319 319 320 321 322 322 323 324 324 323 323 322 323 324 324 323 323 324 319 318 316 312 311 300 303 309 310 310 310 309 309 309 308 308 308 308 306 305 306 305 303 303 303 305 304 301 302 298 302 301 298 300 299 299 297 297 297 298 298 297 297 298 297 295 295 297 299 296 293 301 302 303 302 302 303 302 302 303 304 304 304 304
319 319 319 319 319 320 320 321 321 321 322 322 323 324 325 324 323 323 323 324 323 323 323 323 323 317 315 312 303 297 308 309 311 311 310 310 308 307 307 308 308 307 306 305 305 306 306 305 306 307 307 301 302 299 300 299 301 300 299 298 297 297 298 297 298 296 297 296 297 297 295 297 298 296 294 299 303 302 301 301 302 302 302 302 303 303 304 305
319 318 318 319 320 320 320 320 321 321 322 323 324 324 324 323 322 322 324 323 323 323 322 322 315 315 311 306 302 301 309 309 312 311 311 310 308 308 309 309 309 308 307 304 304 305 307 306 308 308 300 306 297 299 297 300 301 300 301 296 296 297 295 297 296 297 297 296 297 298 294 294 295 294 299 301 302 302 301 301 301 301 302 302 303 303 303 304
318 318 318 319 319 319 320 320 321 321 322 323 324 324 323 322 321 322 323 323 323 322 322 318 318 314 315 304 303 308 310 311 311 311 310 312 311 310 310 310 309 309 309 306 304 306 307 308 307 304 306 304 301 297 299 302 299 301 299 298 294 295 294 297 298 298 295 297 297 297 287 294 298 297 301 302 302 302 301 300 301 301 302 302 303 303 304 304
318 317 317 318 319 320 320 321 321 322 323 323 323 322 322 320 320 320 322 320 317 322 319 316 319 315 310 302 306 309 310 312 311 310 309 311 309 308 309 310 310 309 309 308 308 310 309 310 309 306 308 303 298 304 300 298 300 298 297 297 292 292 291 297 296 297 294 297 297 297 286 292 297 301 302 303 302 301 299 300 300 301 302 302 303 303 303 304
317 317 318 319 319 319 320 320 321 321 321 321 322 320 321 319 319 319 319 320 318 321 322 321 321 315 306 304 309 310 314 310 308 307 309 308 308 307 307 308 307 308 308 308 307 308 309 312 308 303 299 304 304 301 297 297 298 297 293 291 294 290 293 295 298 296 293 296 297 296 287 291 297 300 302 302 302 301 299 300 300 301 302 302 303 303 303 304
317 317 318 319 318 319 319 319 320 320 321 320 320 321 320 320 319 319 317 317 318 316 320 318 318 311 306 301 305 312 310 305 306 308 309 309 308 306 308 306 308 308 308 306 309 310 309 308 304 301 300 302 303 298 296 295 295 296 292 289 289 291 292 294 295 297 296 297 297 295 290 294 295 300 299 301 300 300 299 299 300 301 301 302 302 303 303 304
317 317 318 318 318 319 319 319 319 320 317 319 318 317 319 319 318 318 316 319 321 323 314 310 312 312 301 306 310 304 304 306 309 308 308 310 308 307 307 306 305 306 307 308 308 310 307 303 301 304 304 300 300 299 291 291 290 291 295 290 293 288 291 290 294 296 297 295 293 296 291 292 296 299 300 301 300 300 299 299 300 301 301 302 302 303 303 303
317 317 318 318 318 319 319 320 320 317 314 314 317 315 316 317 316 318 315 322 323 322 317 316 310 309 302 307 300 302 306 305 306 306 307 310 307 308 306 305 305 305 306 304 306 304 304 301 305 298 299 299 299 296 289 288 288 290 291 290 291 293 292 290 291 295 295 296 292 294 294 294 296 299 299 301 302 301 300 300 300 301 301 302 302 303 303 303
317 317 317 318 318 319 319 319 318 317 315 314 315 316 316 315 332 316 313 312 314 310 306 303 307 300 296 300 304 305 305 305 305 306 306 307 308 307 307 307 306 304 302 303 301 303 304 302 304 298 293 295 295 294 291 291 294 293 293 291 290 288 289 291 296 296 296 295 293 294 291 293 296 297 299 301 302 301 301 301 301 301 302 302 302 302 302 303
317 317 318 318 318 318 318 319 318 317 317 318 323 323 316 310 313 306 310 308 303 303 306 305 307 305 303 303 303 306 308 306 303 305 307 307 305 305 305 305 307 305 303 300 303 300 302 298 293 293 291 294 295 294 295 294 295 295 294 291 290 290 292 296 297 296 297 292 292 293 294 294 296 297 299 301 302 301 301 301 301 301 301 301 302 301 302 303
316 316 316 317 318 318 318 317 318 316 313 322 319 317 305 306 301 297 301 303 305 305 305 305 304 302 301 302 304 303 301 303 305 304 305 308 306 304 303 305 304 301 299 299 302 304 301 297 291 294 294 293 293 294 294 295 296 294 292 290 290 292 290 295 295 295 297 291 290 294 293 294 295 297 299 300 300 299 299 300 301 301 301 302 302 302 302 303
316 316 315 317 317 317 317 317 317 316 316 320 318 311 309 310 311 313 311 299 304 305 306 304 305 303 303 303 303 302 301 301 303 303 306 307 305 301 303 303 300 297 300 301 301 300 296 293 294 294 294 294 293 295 294 293 292 293 290 290 289 292 294 295 295 294 294 293 290 294 292 293 295 297 298 299 299 300 301 301 302 301 301 301 302 302 302 303
315 315 316 315 317 318 319 317 316 312 321 315 313 310 309 311 311 313 315 304 300 304 306 305 303 303 303 304 303 304 301 298 299 302 301 305 305 302 305 301 299 300 301 300 298 295 292 297 294 294 294 294 296 294 294 294 294 291 291 290 289 293 289 287 295 292 295 291 290 292 289 291 295 297 298 299 300 301 302 302 303 303 301 301 302 302 302 302
315 314 314 316 316 318 316 315 314 321 318 319 314 314 313 311 311 314 312 303 300 301 305 303 305 303 301 299 303 302 301 300 301 298 303 303 301 302 304 299 300 299 297 299 299 297 295 294 293 294 294 294 294 295 293 292 291 295 294 289 289 290 291 289 290 294 294 295 293 290 288 289 295 296 297 300 300 299 300 299 299 300 301 302 303 304 305 304
314 315 315 315 317 316 318 316 314 316 319 320 314 314 311 313 311 314 309 301 304 301 303 307 305 301 301 304 306 304 302 302 300 300 302 301 301 306 301 300 301 297 297 298 301 299 296 293 293 294 293 294 293 293 295 294 290 292 295 292 291 291 290 291 292 290 289 288 289 291 284 286 294 295 295 298 300 299 300 298 300 301 301 301 300 301 303 304
314 314 316 316 316 316 317 311 319 315 316 313 314 311 312 310 314 315 306 298 290 297 309 297 303 299 303 302 302 304 303 300 299 300 302 300 302 303 301 301 300 297 297 296 296 296 296 293 294 294 295 295 294 293 294 291 290 289 288 289 290 289 289 290 289 288 286 285 290 291 284 282 292 292 295 297 296 296 299 300 300 300 300 302 302 302 302 303
314 315 315 316 316 317 309 309 317 319 308 314 310 313 311 314 312 319 304 293 290 296 297 304 303 302 307 301 301 304 297 299 301 301 301 302 302 306 301 298 302 299 298 298 292 293 296 294 293 294 293 294 293 293 295 292 288 288 288 290 289 289 288 288 287 287 286 292 293 292 290 284 285 291 294 294 294 295 296 297 298 299 300 300 301 302 303 304
314 314 315 316 315 314 317 314 314 313 312 309 308 310 312 311 313 318 298 286 284 303 295 300 302 307 304 303 303 300 296 299 301 300 301 302 302 304 303 297 296 297 298 296 289 294 296 293 293 293 293 292 292 292 292 294 288 290 288 290 288 289 289 289 288 286 288 286 284 289 292 285 285 292 291 293 292 292 293 295 296 298 299 300 300 301 301 302
314 314 315 315 313 311 324 319 317 315 306 308 308 310 313 313 315 302 293 284 294 296 309 300 306 303 303 304 302 301 302 301 296 300 304 301 303 301 299 299 299 296 297 298 292 292 294 293 295 294 292 291 294 292 292 292 290 293 289 290 289 289 289 289 287 286 287 285 282 288 290 283 284 290 292 293 292 290 290 293 295 297 299 299 301 302 302 303
314 315 313 312 314 317 316 321 310 308 306 307 310 311 312 314 305 294 289 282 299 290 300 301 301 295 302 302 298 301 298 298 300 302 305 300 301 303 298 299 299 296 292 297 297 295 293 295 295 294 293 293 292 292 291 292 293 292 293 291 292 288 288 288 287 287 285 281 284 286 288 286 281 287 290 290 289 288 291 293 295 297 299 299 299 299 299 299
313 312 312 312 319 316 316 310 310 306 306 308 310 311 314 306 293 291 283 288 298 297 304 300 295 300 296 295 293 298 300 298 297 300 298 304 299 301 300 297 302 295 292 292 291 294 295 294 294 294 295 295 293 293 293 292 291 292 291 290 290 291 288 286 286 287 281 282 282 286 286 288 279 285 291 294 291 291 292 291 293 295 297 298 298 298 299 299
310 310 311 310 306 315 314 314 307 308 309 309 312 312 303 291 294 287 285 303 290 292 293 291 297 294 295 294 295 292 291 298 297 295 293 294 292 292 291 288 287 287 288 288 288 297 294 292 293 294 293 292 294 291 293 291 293 292 292 291 285 283 285 281 284 281 283 282 283 284 286 283 284 287 292 294 295 294 294 296 296 296 297 298 299 300 300 301
309 309 309 310 312 311 306 304 305 310 310 310 314 306 296 292 284 289 288 291 288 292 293 293 294 294 291 295 292 292 294 291 295 297 294 295 294 291 292 292 291 289 283 289 289 288 290 290 294 294 292 293 292 288 289 289 293 292 289 286 284 280 278 276 280 283 283 285 284 285 285 281 286 289 293 293 294 296 295 295 296 296 297 297 298 300 300 302
310 310 308 306 306 306 306 306 307 308 312 311 308 301 295 288 284 288 286 290 290 294 293 292 292 295 295 291 289 292 291 293 293 293 297 293 295 291 294 294 293 291 289 290 286 285 284 285 292 292 290 292 291 292 290 288 289 289 292 288 286 283 279 275 279 277 279 282 285 284 282 281 282 287 294 294 297 297 297 297 297 297 298 298 299 300 300 298
310 312 312 314 313 308 308 306 308 307 310 310 304 295 289 286 288 287 288 288 291 292 292 292 292 293 294 292 292 292 289 289 293 293 293 293 290 290 288 290 293 292 290 287 287 286 287 286 291 291 292 290 291 291 290 289 289 291 291 291 286 285 287 280 282 282 281 281 281 282 281 287 287 294 296 297 297 297 297 298 297 296 297 299 300 298 297 298
311 314 315 309 309 309 309 308 307 310 312 307 299 291 287 285 287 290 290 291 291 289 291 293 293 293 290 292 290 287 293 288 290 290 289 291 289 290 291 291 289 289 287 285 286 284 286 285 292 294 289 291 290 290 290 291 283 289 289 285 287 287 286 284 285 285 282 282 279 287 286 289 293 293 295 295 295 294 295 295 294 294 295 295 295 296 296 297
311 316 306 309 308 308 308 309 308 312 312 304 296 287 287 289 289 289 292 289 290 289 290 289 288 288 287 288 291 288 288 289 288 289 289 290 290 291 291 290 290 291 289 286 287 287 283 283 292 292 290 290 291 290 292 292 292 288 285 287 291 290 287 284 278 282 281 278 280 285 282 283 284 281 293 292 291 293 293 293 293 294 294 294 295 295 296 296
311 308 310 308 307 309 309 308 311 315 308 299 288 289 291 290 290 291 290 289 289 289 289 290 287 291 287 287 288 286 288 288 290 290 289 291 288 291 291 290 289 289 288 288 286 287 287 282 289 288 290 292 290 290 291 291 293 289 288 290 285 281 280 286 283 275 275 275 277 281 284 284 285 284 288 288 289 290 292 292 292 292 293 293 294 295 295 296
312 313 304 306 309 309 309 307 314 309 307 294 290 290 291 291 290 290 290 289 289 287 289 287 288 288 287 288 286 286 284 287 287 289 288 289 287 292 289 289 290 288 289 291 289 289 291 282 285 288 289 291 289 289 285 289 290 290 293 289 292 286 284 281 283 282 281 275 276 278 282 279 286 286 288 289 290 291 291 291 292 292 293 293 294 294 295 295
310 309 301 311 309 311 309 311 313 306 300 291 289 288 292 290 291 290 290 289 290 290 288 288 289 288 288 287 284 287 287 286 287 288 290 290 289 291 289 290 288 290 290 291 290 292 287 289 280 288 291 290 286 290 286 287 285 287 287 287 288 286 287 285 285 282 280 277 277 276 275 281 287 291 290 290 291 292 292 291 292 293 293 294 294 294 295 295
308 308 302 312 309 312 311 309 299 294 291 289 293 291 291 290 291 292 292 290 292 293 287 288 290 288 288 288 287 289 287 289 289 288 289 290 288 286 286 285 286 289 289 288 289 290 286 287 282 285 286 286 287 288 287 288 289 286 286 284 286 284 281 278 277 285 280 280 277 276 274 282 289 293 292 292 293 293 293 292 292 292 293 293 294 295 295 295
307 297 302 312 310 314 312 299 293 295 293 290 290 292 292 292 292 290 290 290 289 290 291 289 290 291 291 290 290 289 288 287 289 289 291 287 290 288 286 282 285 285 285 287 288 290 287 287 284 282 285 286 288 286 287 287 288 287 288 286 288 286 285 281 275 279 282 282 279 280 276 279 290 293 293 293 293 293 293 293 292 292 293 294 295 295 296 296
303 298 306 310 310 306 304 294 295 292 289 290 292 292 290 290 290 289 290 292 291 292 292 293 290 290 291 290 291 290 290 287 289 287 290 291 288 283 285 285 284 287 286 289 290 288 286 284 283 285 288 291 286 287 286 286 287 287 288 287 286 284 285 283 281 282 279 279 278 279 276 281 291 294 293 293 293 294 294 293 292 293 294 294 295 295 295 295
303 301 303 313 311 305 308 292 290 289 289 291 292 290 291 292 292 292 291 291 290 288 292 292 292 292 291 291 289 288 291 285 290 290 289 286 287 282 284 285 284 288 287 287 285 288 283 287 285 281 282 285 286 285 285 284 286 288 286 288 286 286 282 282 282 282 277 280 280 278 273 280 289 293 293 293 293 292 292 293 293 293 293 294 294 294 295 295
302 310 307 305 307 307 298 298 293 290 289 288 289 288 290 292 291 290 290 291 291 289 287 291 290 291 291 291 290 290 290 288 286 286 283 285 286 283 284 283 282 285 288 285 284 286 284 286 284 279 276 275 275 276 278 281 284 287 289 286 283 283 283 281 279 281 277 281 282 279 278 285 289 291 292 292 291 291 292 293 294 294 294 293 294 294 294 294
303 292 300 301 304 301 297 297 297 293 288 288 288 288 290 289 291 291 291 291 289 291 290 292 292 287 291 291 291 290 290 290 286 286 286 287 287 285 283 283 284 286 284 283 282 284 285 287 285 284 282 280 282 284 288 288 286 282 284 285 285 284 284 283 282 279 277 281 280 282 282 283 285 288 289 290 290 290 290 292 292 293 293 293 294 293 293 293
301 295 294 293 304 298 294 296 295 295 291 293 288 288 287 288 290 291 293 291 291 291 293 292 293 291 291 291 289 289 291 290 288 283 284 285 286 283 283 284 284 284 281 282 284 283 285 284 285 286 285 285 286 286 287 287 283 285 284 284 286 283 281 280 279 278 284 280 276 283 285 282 283 287 288 289 290 290 291 291 292 292 292 293 293 293 292 293
297 291 295 294 296 291 293 290 294 294 294 295 287 290 289 289 291 287 292 290 292 289 291 292 292 292 291 289 289 286 289 289 289 284 285 282 285 285 284 285 285 283 282 285 285 284 284 282 282 278 281 284 285 285 286 286 285 285 285 284 284 285 284 279 280 282 283 278 277 283 284 282 284 287 289 289 290 290 291 292 293 293 293 293 293 292 292 292
300 294 294 295 294 288 290 290 292 296 293 293 290 291 289 290 289 290 290 291 292 291 292 287 291 291 290 290 290 286 288 283 284 284 281 284 283 284 286 285 285 284 285 284 285 283 283 284 284 280 280 282 283 285 287 286 285 284 284 284 285 285 285 285 283 284 283 281 283 284 284 284 286 288 289 290 292 292 292 293 293 292 292 292 292 291 291 291
294 296 291 296 294 288 286 287 292 296 290 293 289 289 290 291 291 292 291 290 289 291 293 291 291 292 291 290 290 286 288 288 285 283 284 283 285 286 285 285 285 286 286 284 284 284 282 283 281 282 280 283 286 287 286 285 284 282 284 286 286 286 285 285 284 285 285 283 284 283 283 282 288 291 291 292 292 293 293 292 291 291 292 292 291 291 291 291
296 296 302 296 291 288 289 289 293 294 291 292 291 290 292 292 292 291 291 292 291 290 291 290 292 291 292 290 291 289 290 287 287 287 288 286 284 287 284 285 285 284 285 283 284 283 282 283 283 282 280 282 286 286 286 286 285 284 283 284 285 284 283 285 284 285 283 282 284 284 282 283 289 292 291 291 292 292 291 291 290 290 291 291 291 290 290 290
296 294 297 303 290 288 290 289 291 295 288 290 291 291 291 292 291 290 290 292 291 292 291 290 291 290 291 291 289 290 287 286 288 289 288 288 288 288 288 288 287 284 284 285 281 283 283 283 282 283 279 280 286 286 285 284 283 282 284 285 286 285 286 287 287 287 286 287 283 281 283 288 290 290 289 290 291 291 291 290 290 290 291 291 291 290 290 290
Wind_Speed
7 7 7 7 8 8 8 8 9 9 9 9 9 9 9 9 9 10 11 11 10 10 9 9 9 9 8 7 8 8 8 8 6 7 10 5 7 13 13 11 11 12 10 7 7 7 7 4 5 2 5 3 2 2 1 1 3 3 4 5 4 1 4 7 4 5 5 9 10 13 12 11 10 8 7 2 9 9 9 8 10 11 12 11 3 3 6 9
6 7 7 7 8 8 8 8 9 9 9 10 10 9 9 9 10 11 11 10 10 9 8 8 8 7 5 6 7 6 6 9 7 11 8 4 6 11 11 11 10 8 8 6 7 7 7 4 3 5 7 2 1 2 3 2 3 4 4 4 1 2 4 3 3 6 1 6 9 12 12 11 8 9 8 8 11 12 12 13 11 13 14 13 13 6 7 9
6 7 7 7 8 8 8 9 9 9 10 10 10 10 9 9 10 11 11 11 10 9 7 7 6 4 5 3 6 4 4 9 3 11 8 11 13 14 12 11 10 8 6 8 7 7 7 8 5 7 2 1 3 2 2 3 5 2 4 2 4 4 6 6 3 4 4 3 10 12 11 10 5 5 7 10 10 11 15 12 13 16 16 15 15 12 10 10
6 6 7 7 7 8 8 9 9 9 10 10 10 10 9 10 11 11 10 10 10 8 5 6 5 4 3 4 1 5 5 9 5 8 12 15 14 13 12 12 10 8 7 7 5 5 4 5 4 5 1 2 1 2 1 5 4 4 3 4 4 3 5 4 4 5 2 4 8 9 7 10 6 6 6 7 10 14 13 15 14 14 15 14 14 14 13 12
6 6 7 7 7 8 8 9 9 9 9 10 10 10 9 10 11 11 10 9 8 7 6 3 2 2 2 2 2 5 5 5 5 8 14 15 13 13 10 10 11 7 6 4 4 2 5 4 3 1 4 1 1 2 4 3 4 3 5 3 4 3 2 4 4 4 2 5 5 7 9 9 4 5 9 10 12 9 9 12 15 15 12 11 12 14 14 14
6 6 7 7 7 8 8 8 8 9 10 10 10 10 9 9 10 9 9 8 7 6 6 6 4 2 1 2 4 5 5 1 6 12 16 16 12 11 9 8 10 8 7 8 6 3 5 5 6 4 1 2 4 1 4 3 3 2 3 3 4 4 3 3 2 3 3 4 6 6 7 3 6 6 10 13 17 14 6 7 6 8 12 12 9 9 11 14
6 6 6 7 7 7 8 8 8 9 9 10 10 9 8 8 9 9 8 7 6 5 6 5 5 2 2 2 5 6 6 6 9 14 15 14 12 9 7 8 9 7 7 8 6 5 4 4 4 1 1 3 4 4 5 3 3 2 4 2 4 4 5 3 3 1 1 5 5 3 2 6 7 11 8 14 17 18 16 13 7 6 4 6 6 10 12 13
6 6 7 7 7 7 7 8 8 8 9 9 9 8 8 7 7 7 7 7 6 5 4 4 3 3 1 3 4 6 8 8 15 14 14 12 12 9 5 5 6 7 5 4 5 5 4 5 2 3 2 3 1 2 3 2 7 5 5 1 4 2 4 3 2 1 2 1 3 1 6 9 9 10 8 16 16 17 18 16 16 11 8 8 10 12 14 15
6 6 6 6 7 7 7 7 8 8 8 8 8 8 6 6 7 8 7 7 7 6 4 2 5 3 1 3 7 3 6 10 11 14 15 14 13 9 4 3 3 3 1 1 2 4 5 2 2 3 1 5 1 4 3 4 3 4 5 4 4 4 3 2 3 2 3 2 2 5 10 9 10 6 15 21 20 18 17 17 16 15 14 13 13 14 15 16
5 5 6 6 6 7 7 7 7 7 7 7 7 7 6 5 5 7 7 5 6 7 1 3 4 4 3 4 6 1 6 10 9 10 13 12 11 6 6 5 5 3 3 4 2 3 5 3 3 7 12 8 3 3 5 5 3 5 6 4 4 4 3 2 2 4 3 2 2 7 9 10 4 3 11 11 10 11 13 15 14 15 16 16 14 14 15 17
4 4 4 5 5 6 6 6 6 6 6 6 6 6 6 7 7 7 8 8 6 6 2 3 2 2 3 6 2 7 4 8 7 8 11 11 9 11 10 7 5 3 3 6 7 7 4 8 6 3 1 3 5 7 5 5 6 7 7 6 4 3 2 3 3 3 3 5 4 6 11 12 10 7 17 16 4 4 6 8 10 12 13 14 16 16 16 16
3 3 3 4 5 5 6 6 6 6 5 6 6 6 6 6 6 5 6 6 6 5 4 3 5 3 9 13 10 6 6 5 7 8 8 9 10 9 9 8 7 5 2 6 7 7 8 4 4 2 2 3 3 7 6 1 1 4 2 2 2 3 4 6 5 4 4 2 2 4 12 17 15 14 22 19 16 12 9 11 12 13 13 13 14 14 13 14
3 3 3 4 5 5 5 5 5 5 5 5 5 6 5 5 4 4 4 5 2 5 5 5 5 2 5 9 5 2 3 5 7 8 9 7 8 10 9 10 10 10 7 7 5 4 3 4 1 10 4 2 4 2 6 2 4 3 2 3 4 5 7 10 4 4 5 2 2 2 6 5 9 23 18 13 8 10 11 12 12 12 12 12 13 12 13 13
3 3 4 4 5 5 5 5 5 5 5 5 5 5 5 2 2 3 3 1 4 7 5 2 5 2 5 7 3 1 4 5 8 7 11 11 6 9 10 11 10 9 10 11 9 6 8 8 13 11 5 4 4 4 7 3 2 3 1 3 4 3 1 10 6 7 6 4 3 1 6 11 10 9 14 11 9 10 11 12 12 12 12 11 11 11 12 13
3 3 4 4 4 5 5 5 5 5 6 5 4 4 3 3 3 4 1 4 4 5 7 5 4 3 5 4 1 2 2 5 3 8 7 10 9 5 9 7 9 9 8 7 6 4 2 2 4 5 5 5 8 5 4 3 2 1 2 2 4 3 2 7 7 8 7 4 5 4 8 13 11 7 6 4 7 10 13 13 13 12 11 11 10 11 12 13
4 3 3 3 3 4 5 5 5 6 6 3 2 3 2 2 3 3 1 1 4 2 5 1 3 4 9 5 4 1 4 3 5 6 3 6 8 6 5 2 1 3 3 5 2 2 4 9 7 5 7 4 4 3 2 2 4 3 3 4 4 1 4 4 8 4 6 1 5 9 9 11 13 3 4 3 6 9 12 14 13 13 13 12 12 12 12 12
5 5 4 3 4 4 5 5 5 5 4 0 2 2 3 4 1 2 2 5 2 3 2 3 3 3 2 2 2 2 2 4 4 5 6 4 6 7 7 4 1 1 1 3 2 3 3 2 1 2 1 1 2 3 3 3 2 3 4 4 4 3 4 4 5 4 4 6 6 11 10 16 15 16 14 7 9 10 11 14 14 14 13 14 12 12 11 11
5 6 6 5 4 4 4 4 4 2 2 2 3 4 5 4 9 3 2 2 1 1 3 3 3 1 6 3 2 5 4 5 6 9 7 4 2 6 6 4 1 4 4 4 5 3 3 1 4 2 2 2 1 3 3 3 3 5 4 4 3 2 7 9 9 5 5 6 10 11 15 21 20 19 18 19 15 14 16 16 16 16 15 13 11 11 11 11
5 5 6 5 4 3 3 3 2 1 1 1 2 2 4 6 2 10 8 4 4 4 3 6 5 1 4 3 1 4 4 4 6 6 6 7 4 6 5 4 6 5 2 3 4 4 2 2 2 3 0 2 4 4 2 3 6 6 7 6 6 6 6 7 2 4 3 7 9 12 14 18 20 18 18 17 15 16 17 16 14 14 13 12 11 11 11 11
5 5 6 6 5 3 3 2 2 3 2 4 2 2 3 3 3 4 7 11 8 5 4 5 3 3 5 5 6 6 5 1 3 3 7 4 5 4 4 3 0 2 4 2 3 4 3 1 1 2 3 4 3 4 4 4 5 7 6 5 6 9 11 10 3 4 2 5 12 15 17 19 21 20 19 18 17 17 16 16 15 13 12 12 11 12 12 12
6 6 6 6 5 4 2 1 1 1 1 3 4 3 1 5 4 5 3 5 2 4 3 4 6 9 6 4 7 8 5 3 3 8 9 6 6 6 2 3 5 0 5 2 3 2 2 2 2 3 4 3 4 3 3 4 4 5 7 5 6 8 8 7 4 4 1 1 8 10 17 22 20 20 21 19 18 20 18 17 17 16 15 12 13 14 14 12
4 5 5 5 5 3 1 1 2 1 3 3 4 2 3 4 3 4 1 6 3 3 3 1 3 4 2 1 2 3 5 4 5 12 10 13 1 5 4 4 5 3 1 2 4 3 1 2 3 4 3 1 1 1 1 3 6 6 4 5 5 4 6 8 4 1 1 3 10 10 13 20 20 21 22 20 19 17 15 15 15 15 15 13 12 13 13 11
4 4 5 3 4 3 4 3 2 2 4 2 3 7 5 1 2 1 3 9 6 2 3 6 6 7 6 3 3 4 4 8 4 11 13 13 3 7 6 3 5 1 1 3 5 4 1 4 4 2 1 3 1 0 3 5 6 6 4 4 5 7 5 4 1 2 3 4 9 11 13 18 22 18 19 18 14 13 11 9 9 9 12 13 12 11 10 11
4 4 4 3 2 4 3 2 1 2 0 3 2 4 3 1 2 4 4 2 3 2 4 3 2 5 4 6 6 7 7 3 4 10 12 10 6 4 4 6 3 1 4 5 5 3 3 4 2 1 0 3 4 3 4 4 4 7 7 4 5 7 8 5 8 11 12 10 5 10 11 13 14 8 3 2 1 2 5 6 8 9 11 11 9 6 5 9
5 4 4 3 5 3 5 1 3 2 1 0 3 2 1 2 3 4 3 2 1 4 2 2 2 3 4 4 4 4 3 2 5 3 7 9 7 4 3 0 3 1 1 5 6 2 4 3 1 1 0 1 4 5 3 5 4 6 3 4 6 9 10 11 11 12 9 4 5 5 9 6 2 5 10 3 2 4 4 4 7 7 7 8 9 10 10 8
6 3 4 5 4 5 2 2 4 3 2 2 3 4 1 1 3 3 3 2 2 5 3 5 4 3 3 4 7 3 3 1 2 4 4 6 3 3 1 1 3 3 2 4 4 2 2 2 1 1 3 3 4 6 3 1 5 7 1 5 5 7 8 9 10 5 6 7 2 1 5 12 11 10 6 4 6 8 4 5 5 6 5 4 4 5 7 8
4 5 5 5 4 4 4 4 3 4 2 2 2 2 0 1 2 2 3 2 1 3 5 2 3 3 2 3 4 4 1 3 2 3 3 4 4 1 3 3 2 3 2 2 2 2 2 2 2 2 4 5 5 6 3 1 3 5 3 4 6 8 8 9 5 4 8 8 12 7 8 7 11 10 3 3 6 7 8 8 8 7 7 6 5 5 6 8
3 5 4 3 3 4 4 4 4 4 1 3 3 2 2 1 1 3 2 1 2 3 4 3 3 2 5 4 7 5 3 7 2 3 1 1 3 2 2 4 4 3 1 1 5 3 2 1 3 2 4 5 5 4 2 0 2 4 3 5 8 7 10 8 5 6 7 5 8 5 6 5 5 3 6 2 5 9 9 10 9 8 8 6 6 6 7 8
3 3 5 6 5 3 1 1 2 0 3 3 3 2 1 1 3 5 3 1 1 2 4 1 1 1 6 3 1 4 1 5 4 6 3 3 1 3 2 3 1 2 1 2 3 2 1 2 2 3 2 5 5 3 3 1 5 2 6 5 7 7 7 7 4 5 4 3 7 2 4 5 10 11 7 4 2 7 7 11 9 8 8 7 7 7 7 8
3 5 7 8 5 2 1 2 6 1 2 3 2 1 1 2 4 2 1 2 3 1 2 4 3 9 8 5 2 8 6 4 1 6 2 3 0 3 4 4 2 1 1 1 4 2 3 3 1 2 3 5 6 2 1 4 7 6 8 9 8 8 7 6 5 3 3 5 2 7 1 4 5 10 9 6 3 2 5 9 10 9 7 7 8 11 12 12
10 7 3 5 1 1 3 2 3 3 2 2 2 3 2 3 1 2 2 1 3 2 2 4 4 5 8 10 3 10 1 5 8 9 4 1 5 7 4 3 4 3 2 2 2 3 3 2 3 1 1 3 2 7 5 2 2 4 5 7 10 8 6 4 3 2 3 3 4 3 2 3 6 7 8 3 2 1 2 5 10 11 10 6 8 10 11 12
12 13 12 8 0 3 2 1 2 2 2 3 3 2 2 2 1 4 2 2 3 4 4 5 2 3 7 2 1 9 6 3 5 7 6 5 7 10 9 5 5 5 4 9 4 2 3 3 3 3 2 1 3 7 3 3 4 5 6 7 8 9 6 5 2 4 4 5 3 2 3 6 10 9 11 14 11 4 0 4 7 9 9 8 6 11 11 11
15 16 18 10 2 7 4 2 3 2 3 3 2 3 1 2 3 1 0 4 1 4 2 3 5 7 6 4 7 7 1 4 7 1 2 2 1 5 2 5 3 2 4 8 7 8 2 2 2 3 2 2 3 5 6 2 3 5 6 5 6 7 6 9 8 6 8 3 6 2 3 8 14 12 12 10 7 7 6 5 5 6 8 9 11 9 11 10
7 11 11 5 10 6 2 1 2 3 4 2 3 3 3 1 2 3 0 3 2 1 3 2 6 4 4 5 3 6 1 3 4 4 3 1 1 5 2 6 9 4 1 7 5 7 6 4 3 3 2 3 3 4 4 7 9 7 2 4 3 4 4 8 7 10 9 11 6 2 4 3 4 4 9 12 9 6 6 4 3 3 3 5 6 8 9 11
13 13 8 4 5 6 4 1 0 2 3 3 3 2 1 2 1 2 2 4 3 5 2 2 4 3 2 2 2 1 2 1 3 3 5 4 4 3 5 6 7 6 3 4 3 2 2 8 2 2 2 0 3 2 1 4 9 2 3 3 3 2 3 8 9 11 7 10 10 2 4 4 7 11 14 7 7 8 3 3 3 8 10 6 5 10 13 13
2 4 4 5 4 3 2 1 2 2 3 3 2 5 4 2 1 3 1 1 4 3 6 5 3 2 5 1 3 0 2 1 2 1 1 4 1 3 2 4 5 8 5 3 3 4 7 5 4 3 2 2 1 1 1 2 3 5 5 3 5 2 2 7 11 4 2 6 10 7 6 7 7 8 6 6 9 10 11 13 13 16 14 14 12 12 14 15
4 1 6 4 5 5 2 1 2 3 3 4 1 3 1 1 1 3 3 3 3 5 5 1 4 4 3 3 3 5 1 1 1 2 3 2 2 4 2 3 2 2 6 3 1 2 3 12 14 8 3 3 2 2 2 3 1 3 4 5 9 2 0 3 6 6 8 10 10 8 11 10 8 7 3 8 15 13 12 12 16 15 15 14 13 14 15 17
2 3 5 7 7 5 3 2 3 3 1 8 6 5 1 1 3 3 3 4 2 3 3 4 1 2 2 2 4 5 6 2 9 4 3 5 2 2 1 2 2 2 2 1 2 1 2 8 3 4 3 2 2 2 6 4 2 3 4 2 5 4 5 2 4 8 8 9 10 9 11 12 7 6 6 11 19 18 13 16 16 15 14 15 15 17 18 19
2 2 4 6 7 3 3 4 4 3 2 7 2 3 2 3 2 3 3 4 3 4 1 3 2 1 1 3 3 1 4 4 4 5 4 4 3 3 2 3 1 1 2 4 3 4 3 4 3 2 2 0 3 1 5 2 5 3 2 4 1 2 5 6 3 3 5 12 10 9 8 13 7 4 8 20 20 17 15 17 17 17 16 15 15 16 18 19
1 1 4 2 7 3 4 3 0 5 5 5 2 3 2 2 3 2 2 3 3 3 3 2 2 2 2 0 1 3 1 1 3 2 4 2 3 4 4 2 4 1 1 2 3 2 2 1 6 3 4 3 4 1 6 6 5 1 2 2 2 2 1 2 4 6 6 9 9 10 10 9 13 9 15 19 19 14 15 18 17 16 16 17 17 17 18 19
2 1 2 2 7 3 4 2 10 7 5 2 6 4 1 2 1 2 2 1 2 1 1 1 4 3 2 2 1 2 3 3 2 2 4 1 4 2 4 4 5 4 3 3 4 1 3 5 8 12 11 7 6 4 3 4 3 3 3 4 4 7 7 8 9 3 3 4 7 8 11 12 17 12 15 15 13 15 16 15 16 18 20 20 19 19 19 18
1 2 4 5 6 3 3 7 4 3 2 2 2 3 2 2 1 2 1 1 2 1 1 0 1 3 3 2 2 3 3 2 1 2 2 3 1 3 3 3 3 3 4 4 4 3 2 4 5 8 8 12 5 6 4 3 1 3 3 3 1 3 3 4 9 7 4 3 2 6 8 13 13 11 13 12 13 15 15 15 16 17 20 21 20 20 19 18
5 4 1 6 5 3 4 9 4 4 4 2 2 2 1 1 2 1 2 2 1 1 2 1 3 2 3 2 3 3 3 1 2 3 5 2 1 2 3 5 4 5 4 1 4 2 2 3 5 9 10 7 8 5 6 4 1 2 5 5 2 4 2 6 7 4 6 11 9 7 8 11 13 10 13 15 17 16 12 14 17 18 18 19 21 20 19 18
3 4 4 3 2 3 1 4 3 3 3 2 2 4 1 3 5 3 2 3 3 2 3 3 2 3 2 2 2 3 4 1 2 3 0 1 2 2 2 3 4 1 4 4 3 6 3 1 4 8 7 6 1 4 4 2 2 3 6 3 4 1 3 0 1 2 5 10 13 10 12 10 11 12 14 17 18 16 15 15 16 18 17 18 19 18 17 18
3 2 3 6 9 6 4 4 5 4 2 2 1 4 2 1 3 2 2 4 2 1 2 3 2 3 1 1 2 1 2 3 2 3 0 2 0 2 1 2 4 3 4 5 3 5 3 6 4 4 8 10 11 11 12 13 10 10 8 2 3 5 4 1 5 2 7 7 8 7 11 13 16 17 18 18 18 16 15 17 18 16 17 18 17 17 17 16
2 4 3 6 8 8 6 2 4 5 4 2 3 1 2 2 1 2 3 1 2 2 1 3 1 1 2 2 2 1 2 2 1 2 2 2 0 0 0 3 2 2 5 5 6 3 2 4 5 4 4 7 9 8 11 10 12 9 16 14 8 3 3 3 4 6 8 8 10 13 13 17 20 19 20 20 18 17 17 20 20 20 20 19 16 15 14 15
2 3 2 2 1 9 5 7 4 3 1 3 1 2 5 4 1 1 2 1 2 2 2 2 4 4 4 4 4 3 1 3 3 1 2 5 1 1 2 2 2 2 3 3 2 1 2 4 3 7 7 10 13 15 16 13 14 16 15 15 10 4 7 6 5 8 6 9 13 10 14 13 19 20 20 21 18 16 18 19 19 19 20 19 16 16 17 16
4 0 1 2 1 1 2 4 6 5 4 2 2 1 3 2 3 2 1 2 1 1 2 3 1 5 3 4 6 3 7 9 1 2 2 1 3 1 1 3 1 3 2 1 1 1 3 4 1 4 7 8 14 16 17 14 13 15 14 14 14 10 7 7 9 14 10 7 12 17 20 19 20 20 21 19 14 14 18 19 18 18 19 19 17 17 17 17
4 4 3 3 2 1 3 1 4 4 8 6 2 4 3 4 4 2 2 3 2 2 3 2 7 8 5 3 3 3 7 5 3 1 1 4 1 4 2 1 2 2 2 1 1 0 2 5 2 1 8 12 15 16 13 12 13 14 11 14 16 13 10 11 13 13 12 14 18 18 21 23 21 20 20 15 12 15 15 15 16 19 20 17 16 17 17 17
3 2 3 4 8 3 0 1 2 1 5 4 1 4 2 4 3 2 1 2 2 3 2 3 8 8 4 3 3 2 5 3 3 3 2 2 8 2 3 1 1 2 1 0 1 1 1 2 6 4 6 12 10 9 5 9 12 15 15 14 13 11 13 11 7 11 11 15 18 19 20 20 17 16 13 11 14 13 16 17 17 18 19 17 16 16 16 17
3 3 2 7 4 3 1 1 2 4 4 5 4 2 1 3 2 2 2 1 2 3 5 5 7 9 1 2 2 2 4 5 6 8 5 2 5 4 2 1 4 4 0 0 1 1 0 3 1 2 7 12 7 11 13 15 15 13 14 14 12 12 10 4 3 7 5 9 11 13 12 11 12 12 13 15 15 16 17 17 16 18 17 16 15 15 16 17
3 1 1 0 5 3 2 0 2 2 4 3 3 2 2 3 1 2 1 2 0 1 2 3 5 5 2 2 2 2 4 5 7 6 4 6 6 7 6 8 5 3 4 2 1 2 1 4 6 5 9 9 11 14 16 19 11 5 3 6 10 13 12 10 9 8 11 10 11 9 11 14 15 13 16 18 19 20 19 16 15 18 17 15 14 14 16 18
Wind_Direction
286 290 297 300 301 303 303 305 305 307 308 308 306 303 305 308 304 304 304 307 307 308 305 289 284 286 293 302 299 308 320 280 84 52 68 67 293 305 305 310 310 312 320 298 273 254 266 246 242 238 255 248 14 261 60 24 355 270 232 243 218 72 203 140 189 164 47 147 151 166 172 187 200 174 208 199 243 241 252 228 234 238 236 237 201 130 127 138
294 300 301 304 302 302 304 305 307 307 307 304 302 301 303 304 309 306 304 304 306 306 299 288 282 277 284 285 295 323 303 280 84 60 66 343 336 337 334 322 326 322 309 272 248 248 275 244 259 270 260 229 211 52 241 85 313 288 274 263 20 39 64 336 78 73 184 170 155 170 173 194 211 177 182 212 219 224 235 240 234 238 236 232 231 185 185 170
298 302 302 302 303 304 306 306 306 305 304 304 305 306 308 311 311 306 304 305 306 305 299 292 287 279 268 287 296 300 267 273 99 31 35 20 1 349 342 339 326 318 284 309 308 296 297 327 324 287 303 275 10 63 269 40 306 71 295 270 56 50 89 61 54 67 25 117 149 163 182 204 197 207 146 219 233 217 230 233 225 233 236 229 226 209 204 199
297 299 302 304 307 306 305 306 306 307 307 308 308 312 313 312 306 303 303 302 307 309 310 321 304 303 294 259 261 277 267 289 60 346 13 10 357 341 343 331 333 305 265 277 293 285 288 269 293 283 309 304 113 266 312 14 283 20 287 25 79 86 132 80 53 53 41 315 157 164 166 205 189 221 190 220 240 241 238 233 237 231 233 235 229 215 203 209
300 301 304 304 304 305 304 305 306 307 308 308 309 310 312 309 305 301 302 303 307 308 326 337 354 292 278 238 217 235 290 259 42 337 8 358 349 335 330 331 323 325 268 295 271 225 252 265 257 334 292 133 62 138 44 36 11 71 52 37 77 45 103 81 47 44 4 306 176 160 176 207 184 224 228 231 231 236 230 240 228 245 250 242 239 232 204 208
299 300 299 300 299 300 301 303 307 308 307 306 306 306 308 304 296 296 302 303 299 310 326 327 3 116 218 251 234 215 269 347 350 354 355 347 334 324 313 306 312 298 296 273 268 258 258 232 250 238 240 302 4 342 49 348 319 105 95 83 42 16 72 86 79 52 290 182 181 176 201 163 202 233 222 232 238 243 259 35 326 252 244 252 261 263 213 215
294 293 291 292 295 296 302 305 306 303 300 299 299 299 295 299 305 304 297 302 306 319 316 315 307 149 105 232 258 246 59 84 356 344 356 337 323 302 295 286 274 269 256 270 247 255 249 267 275 59 167 110 56 68 35 47 250 347 126 97 63 9 81 65 57 75 264 217 197 188 62 230 221 245 239 239 238 248 262 273 276 273 287 273 246 235 236 227
287 286 288 291 295 297 298 298 294 292 295 295 293 297 302 303 295 296 306 311 317 309 303 281 267 277 344 277 253 94 38 7 340 342 343 342 327 327 311 263 260 279 280 308 307 270 289 280 232 169 6 336 57 37 320 71 38 97 109 105 97 79 78 97 98 168 192 207 352 308 236 239 240 255 278 252 249 249 252 250 254 246 233 237 241 242 238 240
284 288 290 290 290 289 286 285 285 289 290 289 293 299 301 319 323 315 311 314 312 306 296 223 241 234 105 277 278 9 26 346 336 339 349 344 340 320 309 259 324 264 122 321 16 333 274 105 194 297 131 120 291 112 358 318 110 34 94 120 132 102 112 95 131 165 185 190 226 249 245 255 257 298 268 260 257 250 248 250 247 244 241 236 237 238 241 243
284 283 283 282 278 275 276 279 283 285 287 293 300 304 299 297 306 318 311 324 336 337 254 177 213 170 208 238 260 70 32 324 344 348 354 349 348 5 30 2 332 316 283 23 2 332 302 90 14 97 103 80 55 49 311 357 71 109 113 106 114 107 134 161 215 159 192 250 212 254 268 263 223 168 272 252 251 243 240 243 242 246 244 240 242 240 240 242
282 279 276 274 275 279 281 280 280 284 289 294 301 304 318 335 334 320 319 324 337 10 40 202 154 245 255 254 84 78 4 329 355 350 351 356 7 23 19 10 345 321 81 69 50 24 79 110 101 102 256 107 100 41 66 81 119 114 119 106 105 161 138 162 184 164 200 230 208 271 278 276 253 203 247 257 192 163 233 233 237 239 242 245 246 245 240 239
292 293 292 298 295 289 291 295 293 294 293 315 323 324 319 308 298 295 305 309 336 346 334 281 165 260 66 67 58 64 319 341 333 352 2 2 31 31 29 28 29 7 311 96 71 28 16 31 316 331 89 225 89 135 71 302 157 127 210 207 135 193 208 176 207 182 222 231 151 336 290 263 231 229 239 243 249 238 233 244 247 243 242 243 246 247 245 241
334 327 305 307 306 303 302 302 300 305 307 301 297 289 284 272 269 258 265 256 319 312 305 306 306 257 277 61 54 302 311 316 323 340 4 355 58 52 47 47 49 45 44 84 58 22 4 322 255 89 44 81 88 1 115 224 114 238 234 312 191 215 244 193 162 187 203 154 81 338 293 279 207 219 238 237 221 221 228 243 243 243 245 246 246 247 249 248
336 335 320 317 318 319 312 309 306 294 285 282 278 273 259 247 224 212 191 298 318 288 284 287 271 154 107 80 93 23 304 315 291 12 354 342 38 56 57 56 61 63 68 80 78 75 86 82 86 94 37 41 118 162 138 131 223 262 30 276 271 257 112 142 185 164 227 112 151 207 266 278 302 225 218 218 208 200 228 240 243 246 248 249 250 253 255 254
339 330 321 318 316 317 317 308 301 298 292 281 266 231 157 121 54 40 332 237 277 290 288 291 257 267 62 93 266 106 243 262 337 8 3 342 346 64 41 57 61 65 66 75 90 80 45 239 105 67 73 67 114 166 142 170 186 138 247 221 201 259 116 176 175 178 236 139 188 196 263 263 278 318 112 178 196 220 244 249 253 254 256 258 259 257 258 259
326 319 309 317 317 317 311 312 308 304 295 279 214 168 118 100 75 62 64 300 262 286 253 313 17 62 108 97 67 287 259 350 360 339 353 340 354 359 349 4 345 93 116 77 76 92 63 67 59 85 121 189 219 218 192 201 197 194 237 308 294 275 302 267 170 217 244 20 191 201 267 305 290 296 139 185 228 240 249 253 255 255 258 262 263 264 264 265
320 318 333 337 326 321 312 315 310 303 317 131 130 129 146 159 196 261 74 39 353 271 315 55 311 322 19 80 268 260 20 349 333 337 343 356 326 339 308 264 242 172 134 156 154 189 35 82 198 216 281 360 25 310 273 243 252 201 183 276 301 268 294 282 122 221 183 217 242 214 246 254 266 278 276 206 201 218 238 254 254 257 262 263 265 265 263 264
322 324 326 324 324 312 314 315 312 328 95 45 76 127 125 214 211 220 244 76 321 21 66 123 31 300 102 187 324 20 326 305 345 332 297 352 282 322 337 321 264 276 251 214 61 1 333 167 227 55 162 135 247 281 289 342 4 333 329 297 285 262 244 270 289 116 213 192 244 257 251 264 264 269 271 270 253 239 249 253 257 260 262 261 262 263 263 264
319 313 311 315 313 314 320 314 285 212 167 209 201 268 259 284 259 64 35 329 265 220 193 8 349 344 57 65 192 323 4 359 303 294 351 349 310 286 274 253 274 283 245 266 48 324 356 108 223 193 205 23 20 360 355 351 326 322 329 315 306 299 302 288 5 123 266 261 250 247 252 267 273 270 270 270 265 256 247 249 252 255 255 255 256 257 260 260
319 313 310 313 312 318 314 302 247 196 259 266 250 235 210 198 174 91 29 42 50 32 16 331 347 126 93 35 360 342 278 288 294 50 4 9 310 300 263 326 190 78 0 334 5 58 312 262 15 10 33 6 6 359 346 327 325 294 284 280 284 286 283 278 258 91 127 276 259 260 265 267 269 269 268 266 268 267 259 242 244 245 245 249 251 254 254 257
310 321 315 313 312 315 325 330 196 136 290 293 302 256 172 123 111 98 73 63 61 10 12 43 33 48 43 346 7 347 316 198 254 44 21 312 252 295 12 305 235 155 42 339 318 29 283 277 55 23 10 347 342 337 316 299 274 293 290 280 284 278 277 307 308 116 182 273 280 289 288 278 272 272 270 268 265 261 257 244 242 242 242 241 245 250 252 255
306 303 309 305 310 312 321 180 167 216 283 275 323 263 22 358 317 19 282 94 68 10 263 353 274 76 150 32 42 339 235 259 71 22 17 352 21 285 32 316 16 45 13 309 239 224 223 43 76 41 34 42 317 304 300 298 303 278 268 289 291 296 335 290 83 93 218 232 271 292 299 289 283 277 274 268 262 264 261 257 250 254 251 242 241 244 249 250
291 289 286 300 300 289 250 242 200 246 282 321 78 90 89 66 323 247 292 119 80 302 26 37 39 24 41 131 40 278 313 40 349 20 2 332 21 43 331 6 43 16 245 345 316 324 280 108 61 49 22 300 197 205 304 288 253 266 267 264 290 341 343 312 120 139 233 214 287 314 304 284 284 276 265 263 260 266 272 277 279 282 271 253 236 244 248 246
284 283 275 274 281 266 246 201 166 260 329 332 64 85 102 357 300 286 281 26 108 58 47 39 2 24 30 3 357 338 40 41 318 347 1 350 23 316 300 24 323 9 34 354 349 358 29 66 58 115 313 346 319 310 295 284 289 231 234 272 284 318 316 293 306 312 302 245 285 281 265 264 265 276 293 155 46 281 277 271 271 259 255 265 289 294 238 244
281 273 271 241 242 255 242 320 193 196 19 232 84 98 35 351 312 14 292 172 176 88 179 181 241 79 9 214 274 293 67 159 37 351 350 357 357 284 67 69 286 82 15 353 295 222 114 77 177 243 291 320 324 291 235 294 288 304 147 359 330 321 312 306 310 323 314 271 161 285 334 297 24 335 302 320 189 254 172 235 259 255 233 231 239 247 248 243
270 245 232 236 225 220 249 253 164 118 208 201 86 122 54 309 354 312 283 246 94 1 186 27 206 63 223 16 4 25 274 5 20 14 341 16 286 342 253 147 351 11 32 327 351 1 42 124 259 343 334 314 279 276 298 87 300 297 57 338 343 323 302 300 302 327 295 308 115 206 303 292 305 304 326 14 328 307 300 253 286 315 296 224 244 269 274 276
250 225 214 224 214 193 173 192 61 136 233 186 51 71 88 304 332 273 262 216 86 357 1 75 257 70 285 18 331 270 259 44 6 5 11 30 1 75 304 46 184 94 36 337 254 132 155 141 180 219 279 275 277 279 112 275 311 288 74 323 314 301 296 289 291 256 260 293 288 192 229 268 298 315 107 81 310 360 18 16 14 18 15 6 347 331 319 308
226 206 200 196 185 212 345 101 147 184 306 14 336 8 342 297 276 263 258 283 40 287 342 358 33 333 335 336 337 18 61 293 280 80 46 300 251 209 263 37 16 9 42 283 323 69 287 263 214 244 252 265 282 30 10 297 250 310 8 354 306 292 284 281 267 266 278 315 302 158 213 241 258 302 117 294 19 16 7 351 341 347 358 2 2 4 351 341
205 178 156 138 126 226 321 72 314 197 20 346 354 342 337 325 268 306 269 70 28 343 171 26 130 163 357 278 21 64 302 12 358 356 343 205 283 309 267 58 23 116 36 258 302 97 358 15 23 304 284 298 32 8 11 196 271 68 335 281 261 264 250 252 254 266 271 276 280 176 178 273 294 310 315 144 69 8 358 341 328 342 348 6 14 5 354 352
101 136 143 147 149 197 108 106 51 23 315 339 313 314 292 246 257 232 222 63 323 23 23 314 342 324 313 300 144 17 24 22 9 307 325 353 134 139 75 354 239 314 202 193 274 358 83 68 356 258 298 358 328 337 226 254 272 323 286 284 266 225 229 208 249 261 278 248 251 66 23 329 302 305 322 335 6 352 340 323 322 329 352 24 26 28 16 1
67 57 37 297 286 52 313 162 71 28 334 293 282 255 245 235 272 298 58 13 322 17 234 49 9 329 16 28 19 0 34 22 360 352 34 20 31 24 7 186 235 229 239 198 217 189 130 145 215 102 301 275 278 290 170 225 291 298 293 300 304 285 172 245 241 223 260 287 94 352 76 332 289 289 307 77 175 186 283 303 309 327 338 3 24 33 22 359
78 64 50 61 319 302 355 70 35 342 330 302 286 209 237 256 174 29 103 78 263 11 16 344 53 356 352 294 19 358 346 327 37 21 14 21 36 29 19 39 336 6 5 11 340 252 197 173 95 136 182 147 276 297 181 166 195 222 272 280 318 315 321 307 237 264 259 308 121 128 313 285 231 248 277 293 299 331 47 284 317 322 321 318 345 7 8 354
92 88 65 45 40 58 64 16 298 332 312 284 268 231 250 277 60 7 277 347 70 328 51 207 312 333 306 264 24 341 200 23 325 108 260 231 125 97 12 52 322 339 343 341 319 349 351 116 224 146 142 168 274 320 317 264 176 295 306 338 311 326 330 298 302 292 287 126 184 126 72 259 266 277 275 284 325 5 0 358 338 329 327 326 325 328 322 317
89 80 73 64 72 70 89 357 349 316 299 256 251 224 253 35 84 112 11 17 5 92 287 349 315 264 332 46 324 339 356 191 347 345 289 316 10 37 133 77 23 326 291 308 345 351 328 351 145 222 353 87 266 307 350 291 319 306 357 266 331 301 295 300 304 311 312 304 332 134 312 253 320 14 351 327 353 29 48 46 36 352 305 307 299 289 284 316
94 86 117 130 99 72 51 83 248 292 271 262 248 255 52 71 61 4 35 352 24 322 321 187 295 283 145 134 172 121 349 316 55 311 26 11 38 31 360 15 19 351 285 307 69 271 339 264 47 71 45 26 305 82 339 335 279 230 344 318 263 309 339 278 305 302 310 316 308 182 212 300 293 323 309 7 62 65 88 78 63 16 6 332 313 334 333 330
269 99 99 56 36 24 41 346 259 230 285 277 306 46 55 5 24 7 39 216 263 296 320 288 294 354 25 69 158 99 158 318 9 323 101 39 22 6 26 18 7 9 9 1 342 320 330 290 111 149 133 260 20 121 194 304 311 27 297 324 16 284 279 289 280 256 329 248 248 258 275 283 313 318 44 76 52 18 12 10 6 349 346 342 339 333 332 334
72 147 52 17 33 344 329 241 266 239 263 296 20 66 39 119 282 259 12 335 3 321 269 330 21 351 1 339 8 14 25 222 282 315 58 199 135 45 32 93 13 3 38 357 335 90 320 292 288 273 287 119 285 221 320 276 339 311 289 13 303 168 318 280 299 306 284 289 298 319 314 315 332 327 36 27 354 351 356 359 351 344 343 341 338 338 334 331
101 73 121 48 336 327 304 278 271 230 25 82 66 103 227 243 122 317 15 307 289 221 308 34 91 305 14 340 15 353 332 344 2 326 37 9 28 315 32 28 100 24 355 356 302 33 345 301 37 64 341 200 164 244 232 175 269 262 319 304 321 346 315 296 274 294 315 298 301 299 312 300 311 312 7 339 335 341 350 345 342 345 343 341 338 335 332 327
121 185 55 355 338 328 313 300 255 276 178 68 105 119 58 54 45 18 358 325 261 287 340 28 360 70 346 7 339 133 355 21 328 13 330 32 333 31 32 315 116 164 290 320 266 6 263 282 314 153 280 342 215 214 338 100 164 299 278 239 68 232 240 279 304 306 277 280 296 306 341 299 312 348 337 324 329 338 340 337 338 338 339 339 338 336 333 329
194 119 58 20 321 339 319 282 232 56 53 76 60 59 3 75 74 76 51 321 13 330 45 353 40 343 26 50 37 352 24 329 337 351 338 51 315 53 37 16 2 340 306 267 296 322 296 202 282 328 191 278 309 157 322 343 323 197 230 310 173 227 130 281 264 246 278 295 295 306 303 294 297 323 318 320 327 336 338 339 337 337 340 341 337 333 329 324
266 98 94 11 345 341 296 13 47 34 70 77 51 81 42 45 23 99 114 41 275 142 325 14 344 29 342 316 105 91 334 325 312 344 358 17 15 351 63 24 354 339 336 238 230 323 283 264 281 302 314 318 320 88 30 28 28 327 333 302 323 313 310 306 302 79 9 296 297 308 290 287 285 299 308 313 323 326 338 342 340 342 342 335 328 325 328 328
272 77 28 19 357 330 294 62 38 345 63 46 55 347 80 317 291 52 250 146 246 320 137 254 106 345 6 360 339 321 339 310 316 307 83 339 92 341 50 352 342 321 324 332 1 50 324 312 283 289 298 292 329 117 55 74 223 267 274 295 335 298 267 281 300 327 331 266 127 260 276 269 277 292 311 319 321 326 341 350 343 339 332 328 325 325 327 331
34 73 133 347 337 339 31 72 52 48 62 71 223 84 338 52 4 270 348 28 296 224 249 25 12 317 85 351 340 320 10 283 354 359 330 296 34 33 346 317 322 280 241 222 175 122 19 258 282 283 283 252 94 95 115 116 172 220 218 228 256 273 291 277 282 318 287 286 278 275 249 275 295 315 323 330 326 331 346 348 342 332 327 324 325 328 331 335
93 67 35 70 39 178 305 97 97 77 91 132 110 83 349 31 15 24 14 38 357 357 354 11 184 32 338 4 302 333 356 320 151 285 329 53 285 68 2 310 342 333 325 28 336 32 299 99 332 306 318 326 222 146 129 148 228 319 320 279 204 92 78 62 293 255 262 257 261 276 275 275 288 309 315 317 326 336 341 340 336 330 328 327 327 330 336 340
127 135 75 18 21 24 73 352 110 121 129 116 113 49 46 116 45 28 330 20 344 360 282 45 13 334 289 353 305 268 327 357 307 96 223 293 352 124 62 322 330 286 23 1 337 328 262 291 314 328 336 333 336 342 346 333 336 319 293 212 204 184 175 243 276 262 267 278 267 256 267 274 295 306 308 317 328 332 337 335 332 330 330 330 329 335 339 335
357 89 340 29 12 56 76 22 36 93 118 147 79 359 329 62 153 164 267 54 360 295 321 315 170 222 279 271 286 269 240 152 269 335 329 324 88 180 84 297 294 333 12 329 314 307 287 299 246 259 287 299 300 302 300 315 308 308 297 289 281 163 195 230 270 274 264 298 291 272 272 288 296 309 314 319 328 334 335 332 331 332 332 330 333 334 331 328
79 67 351 99 175 63 80 36 42 343 70 317 66 350 23 14 337 165 207 342 91 348 289 10 355 340 5 335 355 300 319 284 137 7 242 288 358 6 161 274 266 240 314 315 218 249 267 278 245 227 241 257 279 287 293 303 288 283 285 290 296 171 166 174 226 259 300 313 282 277 295 299 298 305 308 317 326 333 330 326 326 328 330 328 331 328 324 325
71 98 67 327 7 30 27 32 7 67 40 62 94 236 13 11 39 15 197 142 139 175 296 159 78 57 343 352 320 316 351 320 252 288 355 178 310 201 193 171 257 128 234 142 165 297 315 293 65 104 240 257 274 277 279 280 266 261 267 279 287 282 160 207 217 242 262 248 259 281 293 293 294 300 303 309 325 329 324 321 318 315 317 324 324 322 322 325
53 120 79 282 94 3 13 324 308 50 59 43 103 40 32 37 54 41 344 324 208 90 8 12 10 14 3 344 317 336 352 347 350 80 85 322 344 322 312 180 163 200 221 211 191 168 285 250 8 207 277 266 262 266 264 253 265 268 260 265 273 274 257 212 239 248 240 241 250 267 279 281 284 287 296 309 325 322 317 316 319 321 320 315 316 316 319 324
146 150 113 26 88 109 32 271 273 338 66 334 79 3 8 0 33 41 149 336 21 46 355 348 352 344 351 332 301 329 1 338 325 297 36 68 310 195 292 317 351 164 237 313 349 157 211 313 55 321 299 293 274 259 221 237 254 272 286 284 283 280 274 263 244 250 248 256 257 259 267 275 278 279 296 322 319 313 314 319 320 318 319 314 311 313 319 325
76 2 105 133 96 20 299 335 34 54 83 17 60 70 261 19 25 1 29 6 20 350 2 347 334 323 153 264 257 298 43 343 304 283 303 282 268 30 327 28 23 319 310 319 182 317 262 287 114 258 311 305 321 342 318 301 284 276 279 280 279 296 304 283 215 207 213 251 275 286 282 278 297 325 326 311 312 315 316 319 321 317 314 310 310 315 322 325
78 108 248 208 90 327 22 148 263 228 58 21 17 18 347 36 340 337 197 146 275 5 344 320 320 299 273 245 7 10 326 296 289 287 295 291 301 299 286 295 324 324 331 320 49 266 317 309 318 341 318 280 310 327 318 307 292 264 236 284 308 291 272 271 285 198 214 249 283 284 277 298 314 324 312 310 316 322 319 319 318 308 305 305 309 318 324 325